Regional Weather Roundup
Issued by NWS Midland/Odessa, TX

Skip options and go directly to product.
Home | Oldest Version | Previous Version | Current Version | All | Text Only | Save Text | Print | Product List | Glossary On

Skip product version selection by date and time.   
497
ASUS44 KMAF 251510
RWRMAF
MIDLAND AREA WEATHER ROUNDUP
NATIONAL WEATHER SERVICE MIDLAND TX
1000 AM CDT SAT JUN 25 2016

...IN SOUTHWEST TEXAS AND SOUTHEAST NEW MEXICO...

CITY           SKY/WX    TMP DP  RH WIND       PRES   REMARKS
ALPINE         SUNNY     81  54  38 S9        30.16S
ANDREWS        FAIR      79  65  62 S14G21    30.07S
ARTESIA        SUNNY     79  61  53 S12       30.04F
BIG SPRING     SUNNY     78  65  65 SE21      30.08S
CARLSBAD       SUNNY     79  60  52 SE8       30.01F
DRYDEN           N/A     83  69  62 SE15      30.01S
FORT STOCKTON  SUNNY     80  64  58 SE15G24   30.03R
GUAD PASS      SUNNY     75  58  55 NE12        N/A
HOBBS          SUNNY     77  63  61 SE18      30.08R
MARFA          SUNNY    N/A N/A N/A S9        30.15S
MIDLAND AIRPK  MOSUNNY   81  66  61 SE17G23   30.06S
MIDLAND INTL   MOSUNNY   80  66  62 S20       30.05R
ODESSA         SUNNY     80  65  59 S18G24    30.06R
PECOS          SUNNY     83  57  41 SE3       29.99S
PRESIDIO       FAIR      86  57  36 E6        30.00S
SEMINOLE       SUNNY     78  64  61 S13G18    30.08S
SNYDER           N/A     78  68  71 S15       30.08S
WINK           SUNNY     81  65  58 SE20G25   30.00S
$$
...OTHER STATIONS IN TEXAS...

CITY           SKY/WX    TMP DP  RH WIND       PRES   REMARKS
ABILENE        CLOUDY    80  69  69 S14G23    30.07S
AMARILLO       SUNNY     80  60  50 S28       30.06S
AUSTIN         CLOUDY    81  76  84 S9        30.07S
BROWNSVILLE    MOSUNNY   87  76  69 SE18G28   30.01R
CORPUS CHRISTI CLOUDY    86  77  74 SE12      30.03R
DALLAS FTW     MOSUNNY   86  72  62 S16       30.05R
DEL RIO        CLOUDY    80  72  76 SE15G21   30.01R
EL PASO        MOSUNNY   82  55  39 N5        30.05S
HOUSTON INT    MOSUNNY   88  75  65 SE8       30.08S
LUBBOCK        MOSUNNY   80  65  59 S22       30.08R
SAN ANGELO     MOSUNNY   82  67  60 S14G23    30.06R
SAN ANTONIO    CLOUDY    82  74  76 SE12      30.07S
WACO           PTSUNNY   84  74  71 S9        30.08R
WICHITA FALLS  NOT AVBL
$$
...OTHER LOCATIONS IN NEW MEXICO...

CITY           SKY/WX    TMP DP  RH WIND       PRES   REMARKS
ALAMAGORDO     SUNNY     79  55  44 N8        30.07S
ALBUQUERQUE    CLOUDY    77  50  38 S9        30.17R
CANNON AFB     NOT AVBL
CLOVIS         SUNNY     79  59  50 SW9       30.10S
HOLLOMAN AFB   SUNNY     80  56  43 N8        30.05S
ROSWELL        SUNNY     79  59  50 SE9       30.05S
RUIDOSO          N/A     75  46  35 NW8       30.28S
SANTA FE       CLOUDY    74  48  39 CALM      30.23S
TRUTH OR CONSE PTSUNNY   81  48  31 NW10      30.10S
TUCUMCARI      SUNNY     82  57  42 SW16      30.04S
$$

USA.gov is the U.S. government's official web portal to all federal, state and local government web resources and services.